Location: Bacharowice
(49.9333°N, 19.5833°E)
Time: 09:18:28
(UTC+00:00)

NOSS 3-3 (A) - Pass Details

Date: 11 May 2021
Orbit: 810 x 1402 km, 63.4° (Epoch: 06 June)

Event Time Altitude Azimuth Distance (km) Brightness Sun altitude
Rises 19:32:13 0° 212° (SSW) 3,391 6.7 -10.6°
Reaches altitude 10° 19:34:34 10° 210° (SSW) 2,504 6.0 -10.9°
Maximum altitude 19:40:18 71° 127° (SE) 993 3.9 -11.5°
Drops below altitude 10° 19:46:55 10° 45° (NE) 2,865 6.5 -12.2°
Sets 19:49:45 0° 44° (NE) 3,916 7.2 -12.5°
